Regional Weather Roundup
Issued by NWS

Home | Current Version | Previous Version | Text Only | Print | Product List | Glossary Off
Versions: 1 2 3 4 5 6 7 8 9 10 11 12 13 14 15 16 17 18 19 20 21 22 23 24 25 26 27 28 29 30 31 32 33 34 35 36 37 38 39 40 41 42 43 44 45 46 47 48 49 50

000
ASUS43 KBIS 021202
RWRND

NORTH DAKOTA REGIONAL WEATHER ROUNDUP
NATIONAL WEATHER SERVICE BISMARCK ND
700 AM CDT MON MAY 02 2016

NOTE: "FAIR" INDICATES FEW OR NO CLOUDS BELOW 12,000 FEET WITH NO
SIGNIFICANT WEATHER AND/OR OBSTRUCTIONS TO VISIBILITY.


NDZ001>003-009>011-017-021300-
NORTHWEST NORTH DAKOTA

CITY           SKY/WX    TMP DP  RH WIND       PRES   REMARKS
WILLISTON      CLOUDY    49  35  58 W16       30.03F
6HR MIN TEMP:  49; 6HR MAX TEMP:  54;

MINOT          CLOUDY    49  36  61 SE5       29.97S
MINOT AFB      MOCLDY    46  37  71 S1        29.96F
$$

NDZ018>021-031>035-040>046-021300-
SOUTHWEST NORTH DAKOTA

CITY           SKY/WX    TMP DP  RH WIND       PRES   REMARKS
BISMARCK       CLOUDY    45  38  76 NE8       30.06R
6HR MIN TEMP:  38; 6HR MAX TEMP:  46;

DICKINSON      CLOUDY    44  32  62 W13       30.05F
GARRISON         N/A     51  36  56 W14       30.01F
6HR MIN TEMP:  41; 6HR MAX TEMP:  51;

HETTINGER ARPT PTCLDY    41  34  76 NW9       30.11S
$$

NDZ004>008-012>016-024-026-027-054-021300-
NORTHEAST NORTH DAKOTA

CITY           SKY/WX    TMP DP  RH WIND       PRES   REMARKS
GRAND FORKS    MOCLDY    43  31  62 SE8       30.03F
GRND FRKS AFB  PTCLDY    45  32  59 SW6       30.03F
DEVILS LAKE    CLOUDY    52  37  56 SE5       30.02S
$$

NDZ022-023-025-028>030-036>039-047>053-021300-
SOUTHEAST NORTH DAKOTA

CITY           SKY/WX    TMP DP  RH WIND       PRES   REMARKS
FARGO          PTCLDY    43  33  68 S5        30.06S
6HR MIN TEMP:  41; 6HR MAX TEMP:  46;

JAMESTOWN      CLOUDY    47  33  58 SW5       30.04F
$$





USA.gov is the U.S. government's official web portal to all federal, state and local government web resources and services.